カタログに戻る

COSMOS 2251 DEB

運用中LEO
NORAD 35284·DEBRIS·🇷🇺 Russia

打ち上げ Jun 16, 1993 から Plesetsk Cosmodrome

Loading…

次のパス (今後24時間)

TLE

最新Source: Space-Track

元期: Sep 14, 2026, 07:28 UTC

1 35284U 93036AJN 26257.31174947  .00000247  00000-0  89148-4 0  9998
2 35284  74.0475 116.9212 0015911 132.1223 347.8048 14.38555128694885

AllMySatでCOSMOS 2251 DEBをリアルタイム追跡

Download on the App Store